User: anonymous   Login
Location: Davayat
(45.9471°N, 3.1105°E)
Time: 07:14:59
(UTC+00:00)
Language:

deb r/b Ablestar - Orbit

View from above orbital plane
View from above orbital plane
View from above satellite
View from above satellite

Ground track
Ground track

The orbit data is extracted from the following two-line orbital elements,

1 00478U 61015FQ  21171.30626622  .00000457  00000-0  12051-3 0  9999
2 00478  66.0725 349.2587 0051189   6.0368 354.1344 14.58070041116082
Epoch (UTC): 20 June 2021 07:21:01
Eccentricity: 0.0051189
inclination: 66.0725°
perigee height: 663 km
apogee height: 735 km
right ascension of ascending node: 349.2587°
argument of perigee: 6.0368°
revolutions per day: 14.58070041
mean anomaly at epoch: 354.1344°
orbit number at epoch: 11608

The dashed part of the orbit path shows where the satellite is in the earth's shadow,  

DLR